Flint, MI

4:59 PM EDT on May 23, 2018 (GMT -0400)
Bishop International

Weather History for KFNT - November, 2012

Change the Weather History Date:

Friday, November 9, 2012

  Actual Average Record
Temperature  
Mean Temperature 43 °F 42 °F  
Max Temperature 55 °F 50 °F 73 °F (1999)
Min Temperature 30 °F 33 °F 14 °F (1991)
Degree Days  
Heating Degree Days 22 24  
Month to date heating degree days 250 199  
Since 1 July heating degree days 856 895  
Cooling Degree Days 0 0  
Month to date cooling degree days 0 0  
Year to date cooling degree days 864 531  
Moisture  
Dew Point 35 °F    
Average Humidity 68    
Maximum Humidity 85    
Minimum Humidity 50    
Precipitation  
Precipitation 0.00 in 0.09 in 1.58 in (2005)
Month to date precipitation T 0.81  
Year to date precipitation 27.62 27.59  
Snow  
Snow 0.00 in 0.00 in 2.60 in (1971)
Month to date snowfall T 0.2  
Since 1 July snowfall 0.3 0.6  
Since 1 September snowfall 0.3 0.6  
Snow Depth 0.00 in    
Sea Level Pressure  
Sea Level Pressure 30.15 in    
Wind  
Wind Speed 6 mph (South)    
Max Wind Speed 12 mph    
Max Gust Speed 15 mph    
Visibility 6 miles    
Events      
T = Trace of Precipitation, MM = Missing Value Source: NWS Daily Summary

Daily Weather History Graph

Daily Weather History Graph

Search for Another Location

Airport or City:

Astronomy

Nov. 09, 2012 Rise Set
Actual Time 7:20 AM EST 5:16 PM EST
Civil Twilight 6:50 AM EST 5:47 PM EST
Nautical Twilight 6:16 AM EST 6:20 PM EST
Astronomical Twilight 5:42 AM EST 6:54 PM EST
Moon 2:11 AM EST (11/9) 2:35 PM EST (11/9)
Length of Visible Light 10h 56m
Length of Day
9h 56m
Waning Crescent, 23% of the Moon is Illuminated
Nov 9
Waning Crescent
Nov 13
New
Nov 20
First Quarter
Nov 28
Full
Dec 6
Last Quarter

Hourly Weather History & Observations

Time (EST) Temp. Windchill Dew Point Humidity Pressure Visibility Wind Dir Wind Speed Gust Speed Precip Events Conditions
12:53 AM 34.0 °F 29.8 °F 28.0 °F 79% 30.16 in 7.0 mi SW 4.6 mph - N/A   Clear
1:53 AM 35.1 °F 32.2 °F 28.9 °F 78% 30.17 in 6.0 mi WSW 3.5 mph - N/A   Haze
2:53 AM 30.0 °F 26.5 °F 26.1 °F 85% 30.17 in 5.0 mi SW 3.5 mph - N/A   Clear
3:44 AM 35.6 °F 31.7 °F 30.2 °F 81% 30.15 in 5.0 mi SW 4.6 mph - N/A   Haze
3:53 AM 35.1 °F 31.0 °F 30.0 °F 82% 30.17 in 5.0 mi SW 4.6 mph - N/A   Haze
4:53 AM 37.0 °F 32.4 °F 32.0 °F 82% 30.17 in 5.0 mi SW 5.8 mph - N/A   Haze
5:53 AM 37.9 °F 34.4 °F 32.0 °F 79% 30.18 in 5.0 mi SW 4.6 mph - N/A   Haze
6:53 AM 39.2 °F 35.9 °F 32.0 °F 75% 30.16 in 5.0 mi SSW 4.6 mph - N/A   Haze
7:39 AM 37.4 °F 33.8 °F 32.0 °F 81% 30.16 in 4.0 mi SW 4.6 mph - N/A   Haze
7:53 AM 39.0 °F 34.8 °F 33.1 °F 79% 30.19 in 4.0 mi SSW 5.8 mph - N/A   Haze
8:53 AM 41.0 °F 36.4 °F 34.0 °F 76% 30.19 in 4.0 mi SSW 6.9 mph - N/A   Haze
9:53 AM 43.0 °F 38.8 °F 35.1 °F 74% 30.20 in 4.0 mi SSW 6.9 mph - N/A   Haze
10:53 AM 46.0 °F 43.1 °F 37.0 °F 71% 30.19 in 5.0 mi SSW 5.8 mph - N/A   Haze
11:53 AM 48.0 °F - 37.0 °F 66% 30.19 in 5.0 mi SSW 5.8 mph - N/A   Haze
12:53 PM 51.1 °F - 37.9 °F 61% 30.14 in 6.0 mi South 9.2 mph - N/A   Haze
1:53 PM 53.1 °F - 37.0 °F 55% 30.12 in 7.0 mi South 6.9 mph - N/A   Partly Cloudy
2:53 PM 54.0 °F - 36.0 °F 51% 30.10 in 8.0 mi South 8.1 mph - N/A   Mostly Cloudy
3:53 PM 53.1 °F - 37.9 °F 57% 30.10 in 7.0 mi South 5.8 mph - N/A   Scattered Clouds
4:53 PM 52.0 °F - 37.9 °F 59% 30.10 in 7.0 mi South 5.8 mph - N/A   Overcast
5:53 PM 52.0 °F - 37.0 °F 57% 30.11 in 8.0 mi South 4.6 mph - N/A   Overcast
6:53 PM 50.0 °F - 37.9 °F 63% 30.10 in 8.0 mi SE 5.8 mph - N/A   Overcast
7:53 PM 50.0 °F - 37.9 °F 63% 30.12 in 8.0 mi ESE 4.6 mph - N/A   Overcast
8:53 PM 48.9 °F - 37.9 °F 66% 30.12 in 7.0 mi East 4.6 mph - N/A   Overcast
9:53 PM 48.9 °F - 39.0 °F 69% 30.14 in 6.0 mi East 4.6 mph - N/A   Haze
10:53 PM 48.0 °F - 39.0 °F 71% 30.13 in 6.0 mi SE 5.8 mph - N/A   Haze
11:53 PM 48.0 °F - 39.0 °F 71% 30.12 in 6.0 mi ESE 3.5 mph - N/A   Haze